[[{"header":{"parameterUnit":"m.s-1","parameterCategory":1,"la1":30.2992,"la2":30.254,"lo1":-89.0895,"lo2":-89.0443,"dy":0.0025,"dx":0.0025,"nx":19,"ny":19,"refTime":"2026-03-12T21:00:00:Z","depth":0,"parameterNumber":2,"parameterNumberName":"U-component_of_WINDS"},"data":[0,0,0,-4.5703,-4.5709,-4.5939,-4.594,-4.6278,-4.6282,0,0,0,0,0,0,0,0,0,0,0,-4.5661,-4.5664,-4.5703,-4.5709,-4.5939,-4.594,-4.6278,-4.6282,0,0,0,0,0,0,0,0,0,0,0,-4.566,-4.5664,-4.5668,-4.571,-4.5939,-4.594,-4.6277,-4.6088,0,0,0,0,0,0,0,0,0,0,-4.5857,-4.5844,-4.5663,-4.5668,-4.5712,-4.5939,-4.594,-4.6078,-4.61,-4.6193,0,-4.6282,0,-4.6287,-4.6307,-4.6309,0,0,0,-4.569,-4.5826,-4.5864,-4.5668,-4.5714,-4.5938,-4.583,-4.609,-4.6114,-4.6222,-4.6286,-4.6298,-4.6293,-4.631,-4.6312,-4.6908,-4.6911,0,0,-4.5678,-4.5717,-4.5847,-4.5881,-4.5847,-4.5823,-4.5837,-4.6104,-4.6177,-4.6287,-4.6305,-4.6298,-4.6312,-4.6315,-4.6904,-4.6909,0,0,0,-4.5654,-4.571,-4.574,-4.5868,-4.5906,-4.583,-4.5847,-4.6165,-4.6172,-4.6308,-4.6302,-4.6314,-4.6319,-4.69,-4.6906,-4.7126,0,0,0,-4.5645,-4.5695,-4.5735,-4.5762,-4.5902,-4.6039,-4.5903,-4.6153,-4.6182,-4.6301,-4.6315,-4.6323,-4.6896,-4.6903,-4.7111,-4.7224,0,0,0,-4.5637,-4.5694,-4.5736,-4.5764,-4.5864,-4.6033,-4.6054,-4.6159,-4.618,-4.6309,-4.6324,-4.6893,-4.6902,-4.7098,-4.7202,-4.7392,0,0,0,-4.5641,-4.5931,-4.574,-4.6061,-4.5862,-4.6167,-4.6052,-4.6278,-4.6414,-4.6316,-4.6897,-4.6905,-4.7094,-4.7189,-4.7378,-4.756,-4.7639,0,0,-4.6029,-4.5979,-4.6164,-4.6,-4.6349,-4.6128,-4.6509,-4.6598,-4.6575,-4.6798,-4.6812,-4.7116,-4.7201,-4.7389,-4.8066,-4.8129,0,0,0,-4.63,-4.6434,-4.6518,-4.6648,-4.6721,-4.6792,-4.6817,-4.685,-4.7037,-4.6697,-4.7234,-4.7283,-4.7392,-4.7477,-4.7531,-4.7622,-4.6946,-4.6945,-4.6944,-4.6909,-4.686,-4.7163,-4.7142,-4.727,-4.7291,-4.7391,-4.7437,-4.7354,-4.7481,-4.7548,-4.7964,-4.8066,-4.8105,-4.8201,-4.7639,-4.764,-4.764,-4.7641,-4.7473,-4.7655,-4.7532,-4.7782,-4.7729,-4.7939,-4.7969,-4.7902,-4.809,-4.7911,-4.8004,-4.7814,-4.8176,-4.8257,-4.7657,-4.7654,-4.7652,-4.7651,-4.765,-4.7867,-4.7946,-4.7977,-4.8159,-4.8304,-4.8272,-4.8457,-4.8402,-4.8352,-4.8445,-4.8509,-4.8505,-4.8495,-4.8478,-4.848,-4.8481,-4.8482,-4.8484,-4.8484,-4.8265,-4.8293,-4.8455,-4.8553,-4.8628,-4.8719,-4.874,-4.8813,-4.888,-4.8825,-4.8825,-4.8729,-4.822,-4.8093,-4.8507,-4.8503,-4.85,-4.8498,-4.8496,-4.8857,-4.8713,-4.8964,-4.9038,-4.9147,-4.9294,-4.922,-4.9372,-4.9424,-4.9517,-4.9398,-4.903,-4.8976,-4.8933,-4.8829,-4.9407,-4.9407,-4.9407,-4.9408,-4.9191,-4.9156,-4.9397,-4.952,-4.9634,-4.9591,-4.9875,-4.9893,-4.989,-4.9919,-4.9826,-4.9682,-4.964,-4.9611,-4.9553,-4.9455,-5.018,-5.0181,-5.0181,-4.9552,-4.9525,-4.9778,-4.977,-4.985,-4.992,-5.0185,-5.0331,-5.0297,-5.0211,-4.994,-4.9908,-4.9674,-4.96,-4.9512,-4.9423,-4.9241,0,0]},{"header":{"parameterUnit":"m.s-1","parameterCategory":1,"la1":30.2992,"la2":30.254,"lo1":-89.0895,"lo2":-89.0443,"dy":0.0025,"dx":0.0025,"nx":19,"ny":19,"refTime":"2026-03-12T21:00:00:Z","depth":0,"parameterNumber":3,"parameterNumberName":"V-component_of_WINDS"},"data":[0,0,0,-3.4639,-3.4642,-3.4762,-3.4763,-3.4922,-3.4923,0,0,0,0,0,0,0,0,0,0,0,-3.4609,-3.461,-3.4639,-3.4642,-3.4762,-3.4763,-3.4921,-3.4923,0,0,0,0,0,0,0,0,0,0,0,-3.4608,-3.461,-3.4612,-3.4643,-3.4762,-3.4763,-3.4921,-3.4828,0,0,0,0,0,0,0,0,0,0,-3.471,-3.4688,-3.461,-3.4612,-3.4643,-3.4762,-3.4763,-3.4823,-3.4834,-3.487,0,-3.4905,0,-3.4917,-3.4934,-3.4935,0,0,0,-3.4638,-3.468,-3.4707,-3.4612,-3.4645,-3.4762,-3.4707,-3.4829,-3.4841,-3.4884,-3.4908,-3.4913,-3.492,-3.4935,-3.4936,-3.5162,-3.5163,0,0,-3.4631,-3.4633,-3.4699,-3.4715,-3.4699,-3.4703,-3.4711,-3.4836,-3.4862,-3.4908,-3.4917,-3.4922,-3.4936,-3.4938,-3.5161,-3.5162,0,0,0,-3.4615,-3.4629,-3.4653,-3.4709,-3.473,-3.4707,-3.4715,-3.4856,-3.4864,-3.4919,-3.4924,-3.4937,-3.4939,-3.516,-3.5161,-3.5225,0,0,0,-3.4611,-3.4619,-3.4651,-3.4653,-3.4728,-3.4795,-3.4733,-3.4855,-3.4869,-3.4923,-3.4937,-3.4941,-3.5158,-3.5161,-3.5221,-3.5255,0,0,0,-3.4599,-3.4618,-3.4637,-3.4653,-3.4705,-3.4793,-3.4808,-3.4858,-3.4873,-3.4935,-3.4941,-3.5157,-3.516,-3.5216,-3.5248,-3.5314,0,0,0,-3.4587,-3.4694,-3.4638,-3.4759,-3.4704,-3.4832,-3.4807,-3.4903,-3.4964,-3.4938,-3.5158,-3.5161,-3.5215,-3.5244,-3.5309,-3.5369,-3.5394,0,0,-3.4722,-3.471,-3.478,-3.4734,-3.4873,-3.4814,-3.4961,-3.5015,-3.5018,-3.5113,-3.5119,-3.5222,-3.5248,-3.5313,-3.5537,-3.5558,0,0,0,-3.4823,-3.4874,-3.491,-3.4969,-3.5012,-3.5051,-3.5082,-3.5101,-3.5182,-3.5068,-3.5264,-3.5279,-3.5317,-3.5345,-3.5363,-3.5394,-3.5175,-3.5175,-3.5174,-3.5018,-3.5016,-3.5131,-3.5144,-3.52,-3.523,-3.5274,-3.5305,-3.5288,-3.5333,-3.5362,-3.5498,-3.5532,-3.5544,-3.5577,-3.5394,-3.5394,-3.5394,-3.5394,-3.5214,-3.5284,-3.5257,-3.5359,-3.5356,-3.5441,-3.5471,-3.5456,-3.5533,-3.5478,-3.5511,-3.545,-3.5567,-3.5595,-3.5399,-3.5398,-3.5398,-3.5397,-3.5397,-3.534,-3.5373,-3.5395,-3.5477,-3.554,-3.5548,-3.5622,-3.5617,-3.5612,-3.5645,-3.5673,-3.5672,-3.5668,-3.5659,-3.5659,-3.566,-3.566,-3.5661,-3.5661,-3.5462,-3.5484,-3.5549,-3.5602,-3.5637,-3.5682,-3.5711,-3.5744,-3.578,-3.577,-3.577,-3.5746,-3.5579,-3.5536,-3.5668,-3.5667,-3.5666,-3.5665,-3.5665,-3.566,-3.5614,-3.5714,-3.5749,-3.5809,-3.587,-3.5861,-3.593,-3.5957,-3.5993,-3.5962,-3.5839,-3.5826,-3.5812,-3.5777,-3.5963,-3.5963,-3.5963,-3.5963,-3.5766,-3.5758,-3.5857,-3.5913,-3.5967,-3.5969,-3.6078,-3.61,-3.6115,-3.6131,-3.6103,-3.6055,-3.6042,-3.6036,-3.6018,-3.5984,-3.6219,-3.622,-3.622,-3.5887,-3.5884,-3.5979,-3.5994,-3.604,-3.6078,-3.618,-3.6243,-3.625,-3.623,-3.6142,-3.6131,-3.6055,-3.6031,-3.6008,-3.598,-3.5919,0,0]}]]